STARLINK-2292

Last updated on Sat Apr 24 2021 00:02:02 GMT+0000 (Coordinated Universal Time)

1 48023U 21024AY 21113.25001157 -.01053787 00000-0 -90578-2 0 9999 2 48023 53.0479 55.6685 0001243 72.4991 97.5831 15.71278193 1822

Satellite not in orbit

STARLINK-2292